Powrót do katalogu

STARLINK-33944

AktywnyŁącznośćVLEO
NORAD 64209·PAYLOAD·🇺🇸 United States

Wystrzelony May 31, 2025 z Vandenberg Space Force Base

Loading…

Następne Przeloty (najbliższe 24 godziny)

TLE

ŚwieżeSource: CelesTrak SupGP

Epoka: Sep 15, 2026, 03:23 UTC

1 64209C 25117G   26258.14145833 -.00044472  00000+0 -13140-2 0  2580
2 64209  53.1588 238.7526 0001355  83.8051 288.5019 15.34411810    17

Śledź STARLINK-33944 w czasie rzeczywistym z AllMySat

Download on the App Store